Vorticity
5 4 3 2 5 0 2 5 6 6 0 6 5 8 12 10 7 0 4 5 6 8
5 4 5 6 4 5 3 6 8 2 -1 5 11 9 9 9 0 4 4 5 8 9
5 4 6 2 2 4 5 7 4 3 5 12 9 13 8 1 3 4 5 7 8 8
1 -0 -0 7 4 5 6 7 2 6 12 8 12 7 2 3 4 5 8 9 8 7
8 0 6 4 5 7 7 3 5 11 6 11 7 3 2 4 5 7 8 7 7 7
1 8 3 5 6 7 2 4 11 10 10 6 4 2 3 5 7 8 7 7 6 4
4 4 6 6 6 3 3 11 9 12 7 2 2 3 5 7 7 8 8 5 4 3
6 6 6 5 4 5 12 8 13 7 1 1 3 6 7 8 8 5 4 4 3 4
6 6 5 5 6 13 9 10 3 2 3 3 7 8 8 7 4 4 2 1 3 7
5 6 6 8 12 10 6 2 1 1 6 7 9 8 5 5 3 3 4 6 5 9
6 7 11 9 11 4 2 2 4 7 8 8 5 5 3 3 5 5 5 11 13 11
12 10 9 7 2 2 4 7 9 8 6 5 2 4 5 4 4 10 12 10 8 8
8 8 2 1 3 7 9 8 5 6 3 4 5 2 6 12 11 7 6 7 10 9
4 0 3 6 9 9 5 5 3 4 4 4 8 11 6 6 7 7 8 11 12 13
Height
5769 5773 5775 5778 5779 5780 5780 5779 5777 5776 5773 5771 5768 5765 5762 5759 5756 5751 5747 5742 5738 5733
5764 5767 5769 5772 5772 5773 5772 5771 5769 5767 5765 5763 5760 5756 5754 5750 5746 5742 5737 5732 5727 5722
5758 5761 5763 5764 5766 5765 5764 5763 5761 5759 5757 5754 5751 5747 5744 5741 5736 5731 5726 5721 5716 5711
5751 5755 5756 5758 5758 5756 5756 5755 5754 5751 5749 5745 5742 5739 5735 5731 5726 5720 5715 5710 5704 5699
5746 5748 5750 5750 5749 5748 5748 5747 5745 5742 5739 5736 5732 5729 5725 5720 5714 5709 5703 5698 5692 5686
5740 5741 5742 5742 5741 5740 5740 5738 5736 5733 5729 5726 5722 5718 5713 5708 5702 5696 5690 5684 5678 5672
5732 5734 5734 5734 5733 5732 5731 5729 5726 5723 5720 5716 5712 5706 5701 5695 5689 5683 5677 5670 5663 5656
5726 5726 5726 5726 5726 5724 5722 5720 5717 5713 5709 5705 5699 5694 5689 5683 5676 5670 5662 5654 5646 5638
5719 5719 5719 5719 5718 5716 5713 5710 5707 5703 5697 5692 5687 5682 5676 5670 5663 5655 5647 5639 5629 5620
5712 5713 5712 5711 5709 5707 5704 5701 5696 5691 5686 5680 5675 5669 5663 5656 5648 5640 5630 5621 5612 5602
5706 5705 5704 5703 5701 5698 5695 5690 5685 5680 5674 5668 5662 5656 5649 5641 5632 5622 5613 5602 5591 5580
5698 5698 5696 5695 5692 5688 5684 5679 5674 5668 5662 5656 5648 5641 5632 5624 5616 5605 5595 5584 5571 5559
5691 5690 5688 5685 5682 5678 5673 5667 5662 5656 5649 5642 5633 5624 5616 5607 5598 5589 5578 5565 5552 5538
5683 5681 5679 5675 5671 5666 5662 5657 5651 5643 5635 5626 5618 5608 5599 5588 5577 5566 5556 5543 5531 5518